Stratford, CT

3:59 PM EDT on September 26, 2016 (GMT -0400)
Sikorsky Memorial

Weather History for KBDR - May, 2014

Change the Weather History Date:

Friday, May 16, 2014

  Actual Average Record
Temperature  
Mean Temperature 64 °F 59 °F  
Max Temperature 68 °F 68 °F 85 °F (1951)
Min Temperature 60 °F 51 °F 41 °F (1966)
Degree Days  
Heating Degree Days 1 6  
Month to date heating degree days 85 137  
Since 1 July heating degree days 5565 5292  
Cooling Degree Days 0 1  
Month to date cooling degree days 9 2  
Year to date cooling degree days 9 4  
Growing Degree Days 14 (Base 50)    
Moisture  
Dew Point 62 °F    
Average Humidity 92    
Maximum Humidity 97    
Minimum Humidity 87    
Precipitation  
Precipitation 0.58 in 0.11 in 2.79 in (1989)
Month to date precipitation 2.81 1.83  
Year to date precipitation 20.47 15.90  
Snow  
Snow 0.00 in 0.00 in 0.00 in (2002)
Month to date snowfall 0.0 0.0  
Since 1 July snowfall 57.4 27.6  
Snow Depth 0.00 in    
Sea Level Pressure  
Sea Level Pressure 30.00 in    
Wind  
Wind Speed 14 mph (SE)    
Max Wind Speed 25 mph    
Max Gust Speed 33 mph    
Visibility 8 miles    
Events Rain    
T = Trace of Precipitation, MM = Missing Value Source: NWS Daily Summary

Daily Weather History Graph

Daily Weather History Graph

Search for Another Location

Airport or City:

Trip Planner

Search our weather history database for the weather conditions in past years. The results will help you decide how hot, cold, wet, or windy it might be!

Date:

Astronomy

May. 16, 2014 Rise Set
Actual Time 5:33 AM EDT 8:04 PM EDT
Civil Twilight 5:01 AM EDT 8:36 PM EDT
Nautical Twilight 4:22 AM EDT 9:15 PM EDT
Astronomical Twilight 3:38 AM EDT 10:00 PM EDT
Moon 10:09 PM EDT (5/16) 7:12 AM EDT (5/16)
Length of Visible Light 15h 34m
Length of Day
14h 31m
Waning Gibbous, 95% of the Moon is Illuminated
May 16
Waning Gibbous
May 21
Last Quarter
May 28
New
Jun 5
First Quarter
Jun 13
Full

Hourly Weather History & Observations

Time (EDT) Temp. Dew Point Humidity Pressure Visibility Wind Dir Wind Speed Gust Speed Precip Events Conditions
12:36 AM 64.0 °F 62.1 °F 93% 30.12 in 9.0 mi SE 10.4 mph - N/A   Overcast
12:47 AM 64.4 °F 62.6 °F 94% 30.12 in 9.0 mi SE 11.5 mph - N/A   Overcast
12:52 AM 64.0 °F 62.1 °F 93% 30.12 in 9.0 mi SE 11.5 mph - N/A   Overcast
12:59 AM 64.0 °F 62.1 °F 93% 30.12 in 9.0 mi SE 10.4 mph - N/A   Overcast
1:24 AM 63.0 °F 61.0 °F 93% 30.11 in 10.0 mi SE 11.5 mph - N/A   Overcast
1:52 AM 62.6 °F 60.8 °F 94% 30.10 in 10.0 mi SE 11.5 mph - N/A   Overcast
2:08 AM 63.0 °F 61.0 °F 93% 30.10 in 10.0 mi SE 11.5 mph - N/A   Overcast
2:52 AM 61.0 °F 59.0 °F 93% 30.09 in 9.0 mi ESE 10.4 mph - N/A   Overcast
3:01 AM 61.0 °F 59.0 °F 93% 30.08 in 9.0 mi ESE 10.4 mph - N/A   Overcast
3:34 AM 61.0 °F 59.0 °F 93% 30.07 in 9.0 mi East 10.4 mph - N/A   Overcast
3:52 AM 60.8 °F 59.0 °F 94% 30.06 in 9.0 mi East 10.4 mph - N/A   Overcast
4:52 AM 60.1 °F 57.9 °F 93% 30.05 in 8.0 mi East 6.9 mph - 0.00 in   Overcast
5:06 AM 63.0 °F 60.1 °F 90% 30.04 in 10.0 mi SE 11.5 mph - N/A   Overcast
5:52 AM 63.0 °F 60.1 °F 90% 30.03 in 10.0 mi SE 13.8 mph - 0.01 in   Overcast
6:17 AM 63.0 °F 60.1 °F 90% 30.02 in 9.0 mi SE 16.1 mph - N/A   Overcast
6:29 AM 63.0 °F 60.1 °F 90% 30.02 in 9.0 mi SE 12.7 mph - N/A   Overcast
6:40 AM 63.0 °F 60.1 °F 90% 30.02 in 8.0 mi SE 12.7 mph - N/A   Overcast
6:52 AM 63.0 °F 60.1 °F 90% 30.03 in 8.0 mi SE 12.7 mph - N/A   Overcast
7:52 AM 63.0 °F 61.0 °F 93% 30.01 in 7.0 mi SE 12.7 mph - 0.00 in   Overcast
8:52 AM 64.0 °F 61.0 °F 90% 30.01 in 7.0 mi SE 10.4 mph - N/A   Overcast
9:25 AM 64.0 °F 62.1 °F 93% 30.01 in 8.0 mi SE 10.4 mph - N/A   Overcast
9:50 AM 64.4 °F 62.6 °F 94% 30.00 in 8.0 mi SSE 13.8 mph 21.9 mph N/A   Overcast
9:52 AM 64.9 °F 62.1 °F 90% 30.00 in 8.0 mi SSE 13.8 mph 21.9 mph N/A   Overcast
10:52 AM 64.9 °F 62.1 °F 90% 30.00 in 9.0 mi SSE 17.3 mph - N/A   Overcast
11:52 AM 64.9 °F 62.1 °F 90% 29.99 in 8.0 mi SE 12.7 mph - N/A   Overcast
12:52 PM 66.0 °F 62.1 °F 87% 29.98 in 8.0 mi SSE 13.8 mph - N/A   Overcast
1:52 PM 66.9 °F 63.0 °F 87% 29.96 in 8.0 mi SSE 13.8 mph - N/A   Overcast
2:43 PM 66.9 °F 63.0 °F 87% 29.95 in 9.0 mi SSE 16.1 mph - N/A   Overcast
2:52 PM 68.0 °F 64.0 °F 87% 29.95 in 9.0 mi SSE 15.0 mph - N/A   Overcast
3:52 PM 66.2 °F 62.6 °F 88% 29.94 in 9.0 mi SSE 15.0 mph - N/A   Mostly Cloudy
4:52 PM 66.0 °F 63.0 °F 90% 29.93 in 8.0 mi SSE 15.0 mph 23.0 mph N/A   Overcast
5:05 PM 66.0 °F 63.0 °F 90% 29.92 in 8.0 mi SSE 15.0 mph - N/A   Overcast
5:12 PM 66.0 °F 62.1 °F 87% 29.91 in 7.0 mi SSE 15.0 mph 21.9 mph 0.00 in Rain Light Rain
5:52 PM 64.0 °F 62.1 °F 93% 29.91 in 6.0 mi SSE 12.7 mph 25.3 mph 0.01 in Rain Light Rain
6:14 PM 64.0 °F 62.1 °F 93% 29.91 in 6.0 mi SSE 11.5 mph - 0.00 in   Overcast
6:52 PM 64.9 °F 63.0 °F 93% 29.91 in 6.0 mi SSE 13.8 mph - 0.00 in   Overcast
7:52 PM 66.0 °F 64.0 °F 93% 29.92 in 8.0 mi SSE 11.5 mph - 0.00 in Rain Light Rain
8:52 PM 66.0 °F 63.0 °F 90% 29.91 in 10.0 mi SSE 12.7 mph 23.0 mph 0.00 in   Overcast
9:52 PM 64.9 °F 63.0 °F 93% 29.89 in 9.0 mi SSE 13.8 mph 21.9 mph N/A   Overcast
10:52 PM 64.4 °F 62.6 °F 94% 29.86 in 6.0 mi SSE 17.3 mph 25.3 mph N/A Rain Light Rain
11:52 PM 64.9 °F 63.0 °F 93% 29.82 in 7.0 mi SE 19.6 mph 27.6 mph 0.07 in Rain Light Rain